Time,TemperatureF,DewpointF,PressureIn,WindDirection,WindDirectionDegrees,WindSpeedMPH,WindSpeedGustMPH,Humidity,HourlyPrecipIn,Conditions,Clouds,dailyrainin,SoftwareType,DateUTC
2013-02-23 00:00:00,20.7,18.8,29.93,NW,310,0.0,2.0,92,0.00,,,0.02,VWS V14.01,2013-02-23 06:00:00,
2013-02-23 00:02:00,20.7,18.8,29.93,NW,310,1.0,1.0,92,0.00,,,0.00,VWS V14.01,2013-02-23 06:02:00,
2013-02-23 00:07:00,20.6,18.6,29.93,NW,310,0.0,1.0,92,0.00,,,0.00,VWS V14.01,2013-02-23 06:07:00,
2013-02-23 00:12:00,20.6,18.6,29.93,NW,310,0.0,1.0,92,0.00,,,0.00,VWS V14.01,2013-02-23 06:12:00,
2013-02-23 00:15:00,20.6,18.6,29.93,NW,310,0.0,1.0,92,0.00,,,0.00,VWS V14.01,2013-02-23 06:15:00,
2013-02-23 00:18:00,20.6,18.6,29.93,NW,310,0.0,0.0,92,0.00,,,0.00,VWS V14.01,2013-02-23 06:18:00,
2013-02-23 00:24:00,20.6,18.6,29.93,NW,310,0.0,1.0,92,0.00,,,0.00,VWS V14.01,2013-02-23 06:24:00,
2013-02-23 00:29:00,20.6,18.6,29.93,NW,310,0.0,0.0,92,0.00,,,0.00,VWS V14.01,2013-02-23 06:29:00,
2013-02-23 00:30:00,20.6,18.6,29.93,NW,310,0.0,1.0,92,0.00,,,0.00,VWS V14.01,2013-02-23 06:30:00,
2013-02-23 00:34:00,20.5,18.5,29.93,NW,310,0.0,1.0,92,0.00,,,0.00,VWS V14.01,2013-02-23 06:34:00,
2013-02-23 00:39:00,20.4,18.5,29.93,NW,310,0.0,1.0,92,0.00,,,0.00,VWS V14.01,2013-02-23 06:39:00,
2013-02-23 00:44:00,20.3,18.4,29.93,NNW,327,0.0,1.0,92,0.00,,,0.00,VWS V14.01,2013-02-23 06:44:00,
2013-02-23 00:45:00,20.3,18.4,29.93,NNW,327,0.0,1.0,92,0.00,,,0.00,VWS V14.01,2013-02-23 06:45:00,
2013-02-23 00:49:00,20.2,18.2,29.93,SE,134,0.0,1.0,92,0.00,,,0.00,VWS V14.01,2013-02-23 06:49:00,
2013-02-23 00:54:00,20.2,18.2,29.92,ESE,119,1.0,4.0,92,0.00,,,0.00,VWS V14.01,2013-02-23 06:54:00,
2013-02-23 01:00:00,20.2,18.2,29.92,ENE,70,0.0,0.0,92,0.00,,,0.00,VWS V14.01,2013-02-23 07:00:00,
2013-02-23 01:05:00,20.1,18.1,29.92,NW,319,0.0,4.0,92,0.00,,,0.00,VWS V14.01,2013-02-23 07:05:00,
2013-02-23 01:10:00,20.0,18.0,29.92,NE,44,0.0,4.0,92,0.00,,,0.00,VWS V14.01,2013-02-23 07:10:00,
2013-02-23 01:15:00,19.9,18.0,29.92,NW,305,0.0,3.0,92,0.00,,,0.00,VWS V14.01,2013-02-23 07:15:00,
2013-02-23 01:20:00,19.8,17.9,29.92,NNW,340,1.0,3.0,92,0.00,,,0.00,VWS V14.01,2013-02-23 07:20:00,
2013-02-23 01:25:00,19.8,17.9,29.92,East,100,0.0,3.0,92,0.00,,,0.00,VWS V14.01,2013-02-23 07:25:00,
2013-02-23 01:30:00,19.8,17.9,29.92,WNW,290,0.0,1.0,92,0.00,,,0.00,VWS V14.01,2013-02-23 07:30:00,
2013-02-23 01:35:00,19.8,17.9,29.92,ENE,78,1.0,1.0,92,0.00,,,0.00,VWS V14.01,2013-02-23 07:35:00,
2013-02-23 01:40:00,19.8,17.9,29.92,WSW,249,0.0,2.0,92,0.00,,,0.00,VWS V14.01,2013-02-23 07:40:00,
2013-02-23 01:45:00,19.8,17.9,29.92,WNW,292,0.0,2.0,92,0.00,,,0.00,VWS V14.01,2013-02-23 07:45:00,
2013-02-23 01:50:00,19.8,17.9,29.92,ESE,103,0.0,2.0,92,0.00,,,0.00,VWS V14.01,2013-02-23 07:50:00,
2013-02-23 01:55:00,19.8,17.9,29.92,East,92,0.0,2.0,92,0.00,,,0.00,VWS V14.01,2013-02-23 07:55:00,
2013-02-23 02:00:00,19.8,17.9,29.92,East,79,0.0,2.0,92,0.00,,,0.00,VWS V14.01,2013-02-23 08:00:00,
2013-02-23 02:01:00,19.8,17.9,29.92,East,79,0.0,2.0,92,0.00,,,0.00,VWS V14.01,2013-02-23 08:01:00,
2013-02-23 02:06:00,19.8,17.9,29.92,East,83,0.0,2.0,92,0.00,,,0.00,VWS V14.01,2013-02-23 08:06:00,
2013-02-23 02:11:00,19.9,18.0,29.92,East,83,0.0,2.0,92,0.00,,,0.00,VWS V14.01,2013-02-23 08:11:00,
2013-02-23 02:15:00,19.9,18.0,29.92,East,83,0.0,2.0,92,0.00,,,0.00,VWS V14.01,2013-02-23 08:15:00,
2013-02-23 02:16:00,19.9,18.0,29.92,East,90,0.0,2.0,92,0.00,,,0.00,VWS V14.01,2013-02-23 08:16:00,
2013-02-23 02:21:00,19.8,17.9,29.92,East,90,0.0,2.0,92,0.00,,,0.00,VWS V14.01,2013-02-23 08:21:00,
2013-02-23 02:26:00,19.8,17.9,29.92,East,90,0.0,2.0,92,0.00,,,0.00,VWS V14.01,2013-02-23 08:26:00,
2013-02-23 02:30:00,19.8,17.9,29.92,East,90,0.0,2.0,92,0.00,,,0.00,VWS V14.01,2013-02-23 08:30:00,
2013-02-23 02:31:00,19.8,17.9,29.92,East,90,0.0,1.0,92,0.00,,,0.00,VWS V14.01,2013-02-23 08:31:00,
2013-02-23 02:36:00,19.8,17.9,29.92,NE,38,0.0,1.0,92,0.00,,,0.00,VWS V14.01,2013-02-23 08:36:00,
2013-02-23 02:41:00,19.7,17.8,29.91,ESE,115,0.0,3.0,92,0.00,,,0.00,VWS V14.01,2013-02-23 08:41:00,
2013-02-23 02:45:00,19.7,17.8,29.91,ESE,118,0.0,3.0,92,0.00,,,0.00,VWS V14.01,2013-02-23 08:45:00,
2013-02-23 02:46:00,19.6,17.7,29.91,ESE,109,0.0,1.0,92,0.00,,,0.00,VWS V14.01,2013-02-23 08:46:00,
2013-02-23 02:51:00,19.5,17.6,29.91,ESE,109,0.0,1.0,92,0.00,,,0.00,VWS V14.01,2013-02-23 08:51:00,
2013-02-23 02:57:00,19.4,17.2,29.91,ESE,109,0.0,1.0,91,0.00,,,0.00,VWS V14.01,2013-02-23 08:57:00,
2013-02-23 03:00:00,19.3,17.1,29.91,West,262,0.0,3.0,91,0.00,,,0.00,VWS V14.01,2013-02-23 09:00:00,
2013-02-23 03:02:00,19.2,17.0,29.91,North,355,0.0,2.0,91,0.00,,,0.00,VWS V14.01,2013-02-23 09:02:00,
2013-02-23 03:07:00,19.0,16.8,29.91,ESE,118,0.0,2.0,91,0.00,,,0.00,VWS V14.01,2013-02-23 09:07:00,
2013-02-23 03:12:00,18.9,16.7,29.92,East,96,0.0,2.0,91,0.00,,,0.00,VWS V14.01,2013-02-23 09:12:00,
2013-02-23 03:15:00,18.9,16.7,29.92,North,5,0.0,2.0,91,0.00,,,0.00,VWS V14.01,2013-02-23 09:15:00,
2013-02-23 03:17:00,18.9,16.7,29.92,WSW,240,1.0,1.0,91,0.00,,,0.00,VWS V14.01,2013-02-23 09:17:00,
2013-02-23 03:22:00,18.8,16.6,29.92,South,175,0.0,1.0,91,0.00,,,0.00,VWS V14.01,2013-02-23 09:22:00,
2013-02-23 03:27:00,18.8,16.6,29.92,South,180,1.0,1.0,91,0.00,,,0.00,VWS V14.01,2013-02-23 09:27:00,
2013-02-23 03:30:00,18.8,16.6,29.92,NNW,334,0.0,1.0,91,0.00,,,0.00,VWS V14.01,2013-02-23 09:30:00,
2013-02-23 03:32:00,18.8,16.6,29.92,NW,325,0.0,1.0,91,0.00,,,0.00,VWS V14.01,2013-02-23 09:32:00,
2013-02-23 03:37:00,18.8,16.9,29.91,NW,323,0.0,2.0,92,0.00,,,0.00,VWS V14.01,2013-02-23 09:37:00,
2013-02-23 03:42:00,18.8,16.6,29.91,East,80,1.0,2.0,91,0.00,,,0.00,VWS V14.01,2013-02-23 09:42:00,
2013-02-23 03:45:00,18.8,16.6,29.91,East,80,0.0,2.0,91,0.00,,,0.00,VWS V14.01,2013-02-23 09:45:00,
2013-02-23 03:47:00,18.7,16.5,29.91,East,79,0.0,2.0,91,0.00,,,0.00,VWS V14.01,2013-02-23 09:47:00,
2013-02-23 03:52:00,18.7,16.5,29.91,NE,37,1.0,2.0,91,0.00,,,0.00,VWS V14.01,2013-02-23 09:52:00,
2013-02-23 03:58:00,18.6,16.4,29.91,North,9,0.0,2.0,91,0.00,,,0.00,VWS V14.01,2013-02-23 09:58:00,
2013-02-23 04:00:00,18.6,16.4,29.91,North,9,0.0,2.0,91,0.00,,,0.00,VWS V14.01,2013-02-23 10:00:00,
2013-02-23 04:03:00,18.6,16.4,29.91,East,95,0.0,3.0,91,0.00,,,0.00,VWS V14.01,2013-02-23 10:03:00,
2013-02-23 04:08:00,18.5,16.3,29.91,ENE,61,1.0,4.0,91,0.00,,,0.00,VWS V14.01,2013-02-23 10:08:00,
2013-02-23 04:13:00,18.4,16.2,29.91,ESE,110,0.0,4.0,91,0.00,,,0.00,VWS V14.01,2013-02-23 10:13:00,
2013-02-23 04:15:00,18.4,16.2,29.91,ESE,110,2.0,4.0,91,0.00,,,0.00,VWS V14.01,2013-02-23 10:15:00,
2013-02-23 04:18:00,18.4,16.2,29.91,ENE,78,1.0,2.0,91,0.00,,,0.00,VWS V14.01,2013-02-23 10:18:00,
2013-02-23 04:23:00,18.4,16.2,29.91,North,10,0.0,2.0,91,0.00,,,0.00,VWS V14.01,2013-02-23 10:23:00,
2013-02-23 04:28:00,18.4,16.2,29.92,NE,55,0.0,4.0,91,0.00,,,0.00,VWS V14.01,2013-02-23 10:28:00,
2013-02-23 04:30:00,18.4,16.2,29.92,NE,55,0.0,4.0,91,0.00,,,0.00,VWS V14.01,2013-02-23 10:30:00,
2013-02-23 04:33:00,18.3,16.1,29.92,ENE,74,1.0,2.0,91,0.00,,,0.00,VWS V14.01,2013-02-23 10:33:00,
2013-02-23 04:38:00,18.3,16.1,29.91,SW,215,0.0,4.0,91,0.00,,,0.00,VWS V14.01,2013-02-23 10:38:00,
2013-02-23 04:43:00,18.3,16.1,29.91,SE,125,0.0,0.0,91,0.00,,,0.00,VWS V14.01,2013-02-23 10:43:00,
2013-02-23 04:45:00,18.3,16.1,29.92,SE,125,0.0,4.0,91,0.00,,,0.00,VWS V14.01,2013-02-23 10:45:00,
2013-02-23 04:48:00,18.3,16.1,29.91,NE,39,1.0,4.0,91,0.00,,,0.00,VWS V14.01,2013-02-23 10:48:00,
2013-02-23 04:54:00,18.3,16.1,29.92,SW,226,0.0,4.0,91,0.00,,,0.00,VWS V14.01,2013-02-23 10:54:00,
2013-02-23 04:59:00,18.3,16.1,29.92,NNE,32,0.0,1.0,91,0.00,,,0.00,VWS V14.01,2013-02-23 10:59:00,
2013-02-23 05:00:00,18.3,16.1,29.92,NNE,25,1.0,4.0,91,0.00,,,0.00,VWS V14.01,2013-02-23 11:00:00,
2013-02-23 05:04:00,18.4,16.5,29.91,North,350,0.0,2.0,92,0.00,,,0.00,VWS V14.01,2013-02-23 11:04:00,
2013-02-23 05:09:00,18.4,16.2,29.91,ESE,119,0.0,2.0,91,0.00,,,0.00,VWS V14.01,2013-02-23 11:09:00,
2013-02-23 05:14:00,18.4,16.2,29.91,East,94,0.0,2.0,91,0.00,,,0.00,VWS V14.01,2013-02-23 11:14:00,
2013-02-23 05:15:00,18.4,16.2,29.92,East,94,1.0,2.0,91,0.00,,,0.00,VWS V14.01,2013-02-23 11:15:00,
2013-02-23 05:19:00,18.5,16.6,29.92,WSW,253,2.0,2.0,92,0.00,,,0.00,VWS V14.01,2013-02-23 11:19:00,
2013-02-23 05:24:00,18.5,16.3,29.92,SE,126,1.0,3.0,91,0.00,,,0.00,VWS V14.01,2013-02-23 11:24:00,
2013-02-23 05:29:00,18.4,16.2,29.92,SE,129,0.0,1.0,91,0.00,,,0.00,VWS V14.01,2013-02-23 11:29:00,
2013-02-23 05:30:00,18.4,16.2,29.92,SE,129,0.0,3.0,91,0.00,,,0.00,VWS V14.01,2013-02-23 11:30:00,
2013-02-23 05:34:00,18.4,16.2,29.92,SE,129,0.0,2.0,91,0.00,,,0.00,VWS V14.01,2013-02-23 11:34:00,
2013-02-23 05:39:00,18.5,16.6,29.92,SE,132,0.0,2.0,92,0.00,,,0.00,VWS V14.01,2013-02-23 11:39:00,
2013-02-23 05:45:00,18.5,16.3,29.92,SE,132,0.0,1.0,91,0.00,,,0.00,VWS V14.01,2013-02-23 11:45:00,
2013-02-23 05:50:00,18.5,16.3,29.92,SSW,204,0.0,3.0,91,0.00,,,0.00,VWS V14.01,2013-02-23 11:50:00,
2013-02-23 05:55:00,18.6,16.4,29.92,NW,304,0.0,3.0,91,0.00,,,0.00,VWS V14.01,2013-02-23 11:55:00,
2013-02-23 06:00:00,18.6,16.7,29.92,WNW,292,0.0,2.0,92,0.00,,,0.00,VWS V14.01,2013-02-23 12:00:00,
2013-02-23 06:05:00,18.6,16.4,29.92,WNW,292,0.0,2.0,91,0.00,,,0.00,VWS V14.01,2013-02-23 12:05:00,
2013-02-23 06:10:00,18.5,16.3,29.92,NE,51,0.0,2.0,91,0.00,,,0.00,VWS V14.01,2013-02-23 12:10:00,
2013-02-23 06:15:00,18.5,16.3,29.92,East,94,1.0,2.0,91,0.00,,,0.00,VWS V14.01,2013-02-23 12:15:00,
2013-02-23 06:20:00,18.4,16.2,29.92,SSE,168,0.0,3.0,91,0.00,,,0.00,VWS V14.01,2013-02-23 12:20:00,
2013-02-23 06:25:00,18.3,16.1,29.92,East,90,0.0,4.0,91,0.00,,,0.00,VWS V14.01,2013-02-23 12:25:00,
2013-02-23 06:30:00,18.2,16.0,29.92,NNW,347,1.0,1.0,91,0.00,,,0.00,VWS V14.01,2013-02-23 12:30:00,
2013-02-23 06:36:00,18.2,16.0,29.92,SE,142,0.0,4.0,91,0.00,,,0.00,VWS V14.01,2013-02-23 12:36:00,
2013-02-23 06:41:00,18.2,16.0,29.92,NW,304,1.0,4.0,91,0.00,,,0.00,VWS V14.01,2013-02-23 12:41:00,
2013-02-23 06:45:00,18.1,15.9,29.92,NW,304,0.0,4.0,91,0.00,,,0.00,VWS V14.01,2013-02-23 12:45:00,
2013-02-23 06:46:00,18.1,15.9,29.92,NNE,17,1.0,1.0,91,0.00,,,0.00,VWS V14.01,2013-02-23 12:46:00,
2013-02-23 06:51:00,18.0,15.8,29.92,East,96,0.0,1.0,91,0.00,,,0.00,VWS V14.01,2013-02-23 12:51:00,
2013-02-23 06:56:00,17.9,15.7,29.92,WNW,288,0.0,3.0,91,0.00,,,0.00,VWS V14.01,2013-02-23 12:56:00,
2013-02-23 07:00:00,17.9,15.7,29.92,WNW,288,0.0,3.0,91,0.00,,,0.00,VWS V14.01,2013-02-23 13:00:00,
2013-02-23 07:01:00,17.8,15.6,29.92,NNW,329,1.0,2.0,91,0.00,,,0.00,VWS V14.01,2013-02-23 13:01:00,
2013-02-23 07:06:00,17.8,15.6,29.92,ENE,64,1.0,2.0,91,0.00,,,0.00,VWS V14.01,2013-02-23 13:06:00,
2013-02-23 07:11:00,17.7,15.5,29.92,West,278,1.0,2.0,91,0.00,,,0.00,VWS V14.01,2013-02-23 13:11:00,
2013-02-23 07:15:00,17.7,15.5,29.92,West,278,0.0,2.0,91,0.00,,,0.00,VWS V14.01,2013-02-23 13:15:00,
2013-02-23 07:16:00,17.7,15.5,29.92,West,278,0.0,1.0,91,0.00,,,0.00,VWS V14.01,2013-02-23 13:16:00,
2013-02-23 07:21:00,17.9,15.7,29.92,West,278,0.0,2.0,91,0.00,,,0.00,VWS V14.01,2013-02-23 13:21:00,
2013-02-23 07:27:00,18.0,15.8,29.92,West,278,0.0,2.0,91,0.00,,,0.00,VWS V14.01,2013-02-23 13:27:00,
2013-02-23 07:30:00,18.0,15.8,29.92,West,278,0.0,2.0,91,0.00,,,0.00,VWS V14.01,2013-02-23 13:30:00,
2013-02-23 07:32:00,18.1,15.9,29.92,WNW,288,2.0,2.0,91,0.00,,,0.00,VWS V14.01,2013-02-23 13:32:00,
2013-02-23 07:37:00,18.3,16.4,29.92,WNW,284,0.0,2.0,92,0.00,,,0.00,VWS V14.01,2013-02-23 13:37:00,
2013-02-23 07:42:00,18.6,18.6,29.92,West,280,0.0,2.0,100,0.00,,,0.00,VWS V14.01,2013-02-23 13:42:00,
2013-02-23 07:45:00,18.6,16.7,29.93,NW,321,0.0,2.0,92,0.00,,,0.00,VWS V14.01,2013-02-23 13:45:00,
2013-02-23 07:47:00,18.7,16.5,29.92,NW,323,0.0,1.0,91,0.00,,,0.00,VWS V14.01,2013-02-23 13:47:00,
2013-02-23 07:52:00,18.7,16.5,29.93,NNE,19,0.0,1.0,91,0.00,,,0.00,VWS V14.01,2013-02-23 13:52:00,
2013-02-23 07:57:00,18.8,16.6,29.92,ESE,105,0.0,2.0,91,0.00,,,0.00,VWS V14.01,2013-02-23 13:57:00,
2013-02-23 08:00:00,18.8,16.6,29.92,ESE,105,0.0,2.0,91,0.00,,,0.00,VWS V14.01,2013-02-23 14:00:00,
2013-02-23 08:02:00,18.8,16.6,29.92,NNE,14,1.0,2.0,91,0.00,,,0.00,VWS V14.01,2013-02-23 14:02:00,
2013-02-23 08:08:00,18.9,16.7,29.92,NNE,16,0.0,2.0,91,0.00,,,0.00,VWS V14.01,2013-02-23 14:08:00,
2013-02-23 08:13:00,19.1,16.9,29.92,ENE,59,0.0,2.0,91,0.00,,,0.00,VWS V14.01,2013-02-23 14:13:00,
2013-02-23 08:15:00,19.1,16.9,29.92,ENE,59,0.0,2.0,91,0.00,,,0.00,VWS V14.01,2013-02-23 14:15:00,
2013-02-23 08:18:00,19.2,17.0,29.92,ENE,59,0.0,1.0,91,0.00,,,0.00,VWS V14.01,2013-02-23 14:18:00,
2013-02-23 08:23:00,19.4,17.2,29.92,ENE,68,0.0,1.0,91,0.00,,,0.00,VWS V14.01,2013-02-23 14:23:00,
2013-02-23 08:28:00,19.6,17.4,29.93,NE,54,0.0,2.0,91,0.00,,,0.00,VWS V14.01,2013-02-23 14:28:00,
2013-02-23 08:30:00,19.6,17.4,29.93,NE,54,0.0,2.0,91,0.00,,,0.00,VWS V14.01,2013-02-23 14:30:00,
2013-02-23 08:33:00,19.7,17.5,29.93,NE,54,0.0,1.0,91,0.00,,,0.00,VWS V14.01,2013-02-23 14:33:00,
2013-02-23 08:38:00,19.8,17.6,29.93,SSE,167,1.0,2.0,91,0.00,,,0.00,VWS V14.01,2013-02-23 14:38:00,
2013-02-23 08:43:00,20.0,17.5,29.93,SSE,167,0.0,2.0,90,0.00,,,0.00,VWS V14.01,2013-02-23 14:43:00,
2013-02-23 08:45:00,20.0,17.5,29.93,SSE,167,0.0,2.0,90,0.00,,,0.00,VWS V14.01,2013-02-23 14:45:00,
2013-02-23 08:48:00,20.2,17.7,29.93,NNE,30,0.0,3.0,90,0.00,,,0.00,VWS V14.01,2013-02-23 14:48:00,
2013-02-23 08:53:00,20.5,18.0,29.93,ENE,63,0.0,3.0,90,0.00,,,0.00,VWS V14.01,2013-02-23 14:53:00,
2013-02-23 08:58:00,20.8,18.3,29.93,NNE,22,0.0,0.0,90,0.00,,,0.00,VWS V14.01,2013-02-23 14:58:00,
2013-02-23 09:00:00,20.8,18.3,29.93,NNE,22,0.0,3.0,90,0.00,,,0.00,VWS V14.01,2013-02-23 15:00:00,
2013-02-23 09:04:00,20.9,18.4,29.93,NNE,22,1.0,2.0,90,0.00,,,0.00,VWS V14.01,2013-02-23 15:04:00,
2013-02-23 09:09:00,21.1,18.6,29.93,NW,315,1.0,2.0,90,0.00,,,0.00,VWS V14.01,2013-02-23 15:09:00,
2013-02-23 09:14:00,21.3,18.6,29.93,SW,224,3.0,3.0,89,0.00,,,0.00,VWS V14.01,2013-02-23 15:14:00,
2013-02-23 09:15:00,21.3,18.6,29.93,South,173,1.0,2.0,89,0.00,,,0.00,VWS V14.01,2013-02-23 15:15:00,
2013-02-23 09:19:00,21.2,18.2,29.93,NNE,21,2.0,3.0,88,0.00,,,0.00,VWS V14.01,2013-02-23 15:19:00,
2013-02-23 09:24:00,21.0,18.0,29.93,East,96,1.0,3.0,88,0.00,,,0.00,VWS V14.01,2013-02-23 15:24:00,
2013-02-23 09:29:00,20.8,17.8,29.93,SSE,152,1.0,2.0,88,0.00,,,0.00,VWS V14.01,2013-02-23 15:29:00,
2013-02-23 09:30:00,20.9,17.9,29.93,SE,128,0.0,4.0,88,0.00,,,0.00,VWS V14.01,2013-02-23 15:30:00,
2013-02-23 09:34:00,20.6,17.6,29.94,NE,53,0.0,2.0,88,0.00,,,0.00,VWS V14.01,2013-02-23 15:34:00,
2013-02-23 09:39:00,20.2,17.0,29.94,NE,34,0.0,4.0,87,0.00,,,0.00,VWS V14.01,2013-02-23 15:39:00,
2013-02-23 09:44:00,20.0,16.8,29.94,SE,143,0.0,1.0,87,0.00,,,0.00,VWS V14.01,2013-02-23 15:44:00,
2013-02-23 09:45:00,20.0,16.8,29.94,South,185,0.0,4.0,87,0.00,,,0.00,VWS V14.01,2013-02-23 15:45:00,
2013-02-23 09:50:00,20.0,16.8,29.94,NW,317,1.0,3.0,87,0.00,,,0.00,VWS V14.01,2013-02-23 15:50:00,
2013-02-23 09:55:00,19.8,16.6,29.94,NE,37,1.0,3.0,87,0.00,,,0.00,VWS V14.01,2013-02-23 15:55:00,
2013-02-23 10:00:00,19.7,16.5,29.94,NNE,26,1.0,3.0,87,0.00,,,0.00,VWS V14.01,2013-02-23 16:00:00,
2013-02-23 10:05:00,19.7,16.5,29.94,SE,145,1.0,3.0,87,0.00,,,0.00,VWS V14.01,2013-02-23 16:05:00,
2013-02-23 10:10:00,19.7,16.5,29.94,NW,307,2.0,5.0,87,0.00,,,0.00,VWS V14.01,2013-02-23 16:10:00,
2013-02-23 10:15:00,19.8,16.6,29.94,NW,326,0.0,2.0,87,0.00,,,0.00,VWS V14.01,2013-02-23 16:15:00,
2013-02-23 10:20:00,20.1,16.9,29.94,NNE,32,0.0,4.0,87,0.00,,,0.00,VWS V14.01,2013-02-23 16:20:00,
2013-02-23 10:25:00,20.4,17.2,29.94,ESE,121,2.0,4.0,87,0.00,,,0.00,VWS V14.01,2013-02-23 16:25:00,
2013-02-23 10:30:00,20.5,17.2,29.94,ENE,67,0.0,2.0,87,0.00,,,0.00,VWS V14.01,2013-02-23 16:30:00,
2013-02-23 10:35:00,20.7,17.2,29.94,North,10,0.0,3.0,86,0.00,,,0.00,VWS V14.01,2013-02-23 16:35:00,
2013-02-23 10:40:00,20.8,17.3,29.94,ESE,109,2.0,3.0,86,0.00,,,0.00,VWS V14.01,2013-02-23 16:40:00,
2013-02-23 10:45:00,20.8,17.3,29.94,ESE,107,1.0,3.0,86,0.00,,,0.00,VWS V14.01,2013-02-23 16:45:00,
2013-02-23 10:46:00,20.9,17.4,29.94,NE,42,1.0,3.0,86,0.00,,,0.00,VWS V14.01,2013-02-23 16:46:00,
2013-02-23 10:51:00,21.1,17.6,29.94,East,94,1.0,3.0,86,0.00,,,0.00,VWS V14.01,2013-02-23 16:51:00,
2013-02-23 10:56:00,21.3,17.8,29.94,WSW,250,1.0,3.0,86,0.00,,,0.00,VWS V14.01,2013-02-23 16:56:00,
2013-02-23 11:00:00,21.5,18.0,29.94,North,350,0.0,3.0,86,0.00,,,0.00,VWS V14.01,2013-02-23 17:00:00,
2013-02-23 11:01:00,21.6,18.1,29.94,North,5,1.0,2.0,86,0.00,,,0.00,VWS V14.01,2013-02-23 17:01:00,
2013-02-23 11:06:00,21.8,18.3,29.94,NNW,331,1.0,4.0,86,0.00,,,0.00,VWS V14.01,2013-02-23 17:06:00,
2013-02-23 11:11:00,22.1,18.6,29.94,NE,52,1.0,4.0,86,0.00,,,0.00,VWS V14.01,2013-02-23 17:11:00,
2013-02-23 11:15:00,22.2,18.7,29.94,NNW,338,1.0,5.0,86,0.00,,,0.00,VWS V14.01,2013-02-23 17:15:00,
2013-02-23 11:16:00,22.2,18.4,29.94,North,10,0.0,2.0,85,0.00,,,0.00,VWS V14.01,2013-02-23 17:16:00,
2013-02-23 11:21:00,22.4,18.6,29.94,East,95,0.0,2.0,85,0.00,,,0.00,VWS V14.01,2013-02-23 17:21:00,
2013-02-23 11:26:00,22.4,18.6,29.94,East,83,0.0,2.0,85,0.00,,,0.00,VWS V14.01,2013-02-23 17:26:00,
2013-02-23 11:30:00,22.5,18.7,29.94,NW,311,1.0,4.0,85,0.00,,,0.00,VWS V14.01,2013-02-23 17:30:00,
2013-02-23 11:31:00,22.7,18.9,29.94,NNW,328,0.0,1.0,85,0.00,,,0.00,VWS V14.01,2013-02-23 17:31:00,
2013-02-23 11:36:00,22.9,19.1,29.94,WSW,254,2.0,4.0,85,0.00,,,0.00,VWS V14.01,2013-02-23 17:36:00,
2013-02-23 11:42:00,23.0,18.9,29.94,ESE,106,0.0,5.0,84,0.00,,,0.00,VWS V14.01,2013-02-23 17:42:00,
2013-02-23 11:45:00,23.0,18.9,29.94,South,182,1.0,5.0,84,0.00,,,0.00,VWS V14.01,2013-02-23 17:45:00,
2013-02-23 11:47:00,23.1,19.0,29.94,SSW,200,0.0,3.0,84,0.00,,,0.00,VWS V14.01,2013-02-23 17:47:00,
2013-02-23 11:52:00,23.3,19.2,29.94,ENE,63,0.0,3.0,84,0.00,,,0.00,VWS V14.01,2013-02-23 17:52:00,
2013-02-23 11:57:00,23.6,19.5,29.94,ESE,114,0.0,3.0,84,0.00,,,0.00,VWS V14.01,2013-02-23 17:57:00,
2013-02-23 12:00:00,23.7,19.6,29.94,West,273,3.0,3.0,84,0.00,,,0.00,VWS V14.01,2013-02-23 18:00:00,
2013-02-23 12:02:00,23.8,19.7,29.94,WNW,302,1.0,3.0,84,0.00,,,0.00,VWS V14.01,2013-02-23 18:02:00,
2013-02-23 12:07:00,23.7,19.6,29.94,ENE,71,1.0,5.0,84,0.00,,,0.00,VWS V14.01,2013-02-23 18:07:00,
2013-02-23 12:12:00,23.8,19.7,29.94,East,80,1.0,5.0,84,0.00,,,0.00,VWS V14.01,2013-02-23 18:12:00,
2013-02-23 12:15:00,23.8,19.7,29.94,ESE,121,1.0,5.0,84,0.00,,,0.00,VWS V14.01,2013-02-23 18:15:00,
2013-02-23 12:17:00,23.8,19.7,29.94,East,94,2.0,2.0,84,0.00,,,0.00,VWS V14.01,2013-02-23 18:17:00,
2013-02-23 12:22:00,23.9,19.8,29.94,WNW,302,0.0,3.0,84,0.00,,,0.00,VWS V14.01,2013-02-23 18:22:00,
2013-02-23 12:28:00,24.0,20.1,29.94,East,93,1.0,3.0,85,0.00,,,0.00,VWS V14.01,2013-02-23 18:28:00,
2013-02-23 12:30:00,24.0,20.1,29.94,East,80,2.0,3.0,85,0.00,,,0.00,VWS V14.01,2013-02-23 18:30:00,
2013-02-23 12:33:00,24.3,20.5,29.93,NNW,328,1.0,4.0,85,0.00,,,0.00,VWS V14.01,2013-02-23 18:33:00,
2013-02-23 12:38:00,24.7,20.8,29.93,NNE,30,1.0,4.0,85,0.00,,,0.00,VWS V14.01,2013-02-23 18:38:00,
2013-02-23 12:43:00,24.7,20.8,29.93,WNW,302,0.0,4.0,85,0.00,,,0.00,VWS V14.01,2013-02-23 18:43:00,
2013-02-23 12:45:00,24.7,20.8,29.93,NW,325,0.0,4.0,85,0.00,,,0.00,VWS V14.01,2013-02-23 18:45:00,
2013-02-23 12:48:00,24.7,20.8,29.93,ENE,65,1.0,2.0,85,0.00,,,0.00,VWS V14.01,2013-02-23 18:48:00,
2013-02-23 12:53:00,24.6,20.7,29.93,West,270,0.0,2.0,85,0.00,,,0.00,VWS V14.01,2013-02-23 18:53:00,
2013-02-23 12:58:00,24.8,21.2,29.93,NE,50,2.0,3.0,86,0.00,,,0.00,VWS V14.01,2013-02-23 18:58:00,
2013-02-23 13:00:00,24.8,21.2,29.93,NNW,338,3.0,3.0,86,0.00,,,0.00,VWS V14.01,2013-02-23 19:00:00,
2013-02-23 13:03:00,25.0,21.7,29.93,ESE,117,4.0,4.0,87,0.00,,,0.00,VWS V14.01,2013-02-23 19:03:00,
2013-02-23 13:08:00,25.3,22.0,29.93,SW,225,1.0,4.0,87,0.00,,,0.00,VWS V14.01,2013-02-23 19:08:00,
2013-02-23 13:13:00,25.7,22.4,29.93,East,90,1.0,1.0,87,0.00,,,0.00,VWS V14.01,2013-02-23 19:13:00,
2013-02-23 13:15:00,25.7,22.4,29.93,East,91,1.0,4.0,87,0.00,,,0.00,VWS V14.01,2013-02-23 19:15:00,
2013-02-23 13:18:00,26.0,22.7,29.94,NW,316,0.0,3.0,87,0.00,,,0.00,VWS V14.01,2013-02-23 19:18:00,
2013-02-23 13:24:00,26.2,22.9,29.94,ENE,68,0.0,3.0,87,0.00,,,0.00,VWS V14.01,2013-02-23 19:24:00,
2013-02-23 13:29:00,26.5,22.9,29.93,NW,317,0.0,1.0,86,0.00,,,0.00,VWS V14.01,2013-02-23 19:29:00,
2013-02-23 13:30:00,26.5,22.9,29.93,NW,317,0.0,1.0,86,0.00,,,0.00,VWS V14.01,2013-02-23 19:30:00,
2013-02-23 13:34:00,26.7,23.1,29.93,North,11,1.0,4.0,86,0.00,,,0.00,VWS V14.01,2013-02-23 19:34:00,
2013-02-23 13:39:00,26.6,22.7,29.93,ESE,115,0.0,4.0,85,0.00,,,0.00,VWS V14.01,2013-02-23 19:39:00,
2013-02-23 13:44:00,27.1,23.5,29.93,NE,36,0.0,3.0,86,0.00,,,0.00,VWS V14.01,2013-02-23 19:44:00,
2013-02-23 13:45:00,27.0,23.4,29.93,East,89,0.0,4.0,86,0.00,,,0.00,VWS V14.01,2013-02-23 19:45:00,
2013-02-23 13:49:00,27.4,23.5,29.93,South,175,0.0,3.0,85,0.00,,,0.00,VWS V14.01,2013-02-23 19:49:00,
2013-02-23 13:54:00,27.4,23.5,29.93,WSW,248,0.0,3.0,85,0.01,,,0.01,VWS V14.01,2013-02-23 19:54:00,
2013-02-23 13:59:00,27.2,23.3,29.93,WSW,244,0.0,2.0,85,0.01,,,0.01,VWS V14.01,2013-02-23 19:59:00,
2013-02-23 14:00:00,27.2,23.3,29.93,SE,134,1.0,3.0,85,0.01,,,0.01,VWS V14.01,2013-02-23 20:00:00,
2013-02-23 14:04:00,27.3,23.4,29.93,NW,312,0.0,3.0,85,0.01,,,0.01,VWS V14.01,2013-02-23 20:04:00,
2013-02-23 14:09:00,27.2,23.3,29.93,East,88,0.0,3.0,85,0.01,,,0.01,VWS V14.01,2013-02-23 20:09:00,
2013-02-23 14:15:00,27.1,23.5,29.93,East,81,1.0,2.0,86,0.01,,,0.01,VWS V14.01,2013-02-23 20:15:00,
2013-02-23 14:20:00,27.1,23.2,29.93,ESE,111,0.0,3.0,85,0.01,,,0.01,VWS V14.01,2013-02-23 20:20:00,
2013-02-23 14:25:00,27.1,23.2,29.93,NE,44,2.0,4.0,85,0.01,,,0.01,VWS V14.01,2013-02-23 20:25:00,
2013-02-23 14:30:00,27.0,23.4,29.93,ENE,74,0.0,1.0,86,0.01,,,0.01,VWS V14.01,2013-02-23 20:30:00,
2013-02-23 14:35:00,27.1,23.5,29.93,NNE,26,0.0,4.0,86,0.01,,,0.01,VWS V14.01,2013-02-23 20:35:00,
2013-02-23 14:40:00,27.2,23.6,29.93,NNE,18,0.0,4.0,86,0.01,,,0.01,VWS V14.01,2013-02-23 20:40:00,
2013-02-23 14:45:00,27.2,23.3,29.93,South,173,0.0,3.0,85,0.01,,,0.01,VWS V14.01,2013-02-23 20:45:00,
2013-02-23 14:50:00,27.0,23.4,29.93,West,259,0.0,4.0,86,0.01,,,0.01,VWS V14.01,2013-02-23 20:50:00,
2013-02-23 14:56:00,27.1,23.5,29.93,SSW,212,1.0,4.0,86,0.01,,,0.01,VWS V14.01,2013-02-23 20:56:00,
2013-02-23 15:00:00,27.1,23.2,29.93,NNE,32,0.0,4.0,85,0.01,,,0.01,VWS V14.01,2013-02-23 21:00:00,
2013-02-23 15:01:00,27.0,23.1,29.93,NNW,344,0.0,1.0,85,0.00,,,0.01,VWS V14.01,2013-02-23 21:01:00,
2013-02-23 15:06:00,27.1,23.5,29.93,West,267,4.0,4.0,86,0.00,,,0.01,VWS V14.01,2013-02-23 21:06:00,
2013-02-23 15:11:00,27.0,23.4,29.93,North,11,2.0,4.0,86,0.00,,,0.01,VWS V14.01,2013-02-23 21:11:00,
2013-02-23 15:15:00,27.0,23.4,29.93,NNE,22,0.0,4.0,86,0.00,,,0.01,VWS V14.01,2013-02-23 21:15:00,
2013-02-23 15:16:00,26.9,23.3,29.93,NW,318,1.0,3.0,86,0.00,,,0.01,VWS V14.01,2013-02-23 21:16:00,
2013-02-23 15:21:00,27.0,23.4,29.93,ENE,67,0.0,3.0,86,0.00,,,0.01,VWS V14.01,2013-02-23 21:21:00,
2013-02-23 15:26:00,27.1,23.5,29.93,ENE,68,0.0,3.0,86,0.00,,,0.01,VWS V14.01,2013-02-23 21:26:00,
2013-02-23 15:30:00,27.2,23.6,29.93,ENE,68,0.0,3.0,86,0.00,,,0.01,VWS V14.01,2013-02-23 21:30:00,
2013-02-23 15:31:00,27.3,23.7,29.93,WSW,246,0.0,2.0,86,0.00,,,0.01,VWS V14.01,2013-02-23 21:31:00,
2013-02-23 15:36:00,27.0,23.1,29.93,NW,325,0.0,6.0,85,0.00,,,0.01,VWS V14.01,2013-02-23 21:36:00,
2013-02-23 15:41:00,27.0,23.4,29.94,WNW,282,0.0,6.0,86,0.00,,,0.01,VWS V14.01,2013-02-23 21:41:00,
2013-02-23 15:45:00,27.0,23.4,29.93,SSE,156,0.0,6.0,86,0.00,,,0.01,VWS V14.01,2013-02-23 21:45:00,
2013-02-23 15:46:00,26.9,23.3,29.93,SW,225,0.0,3.0,86,0.00,,,0.01,VWS V14.01,2013-02-23 21:46:00,
2013-02-23 15:52:00,26.9,23.3,29.93,NW,310,0.0,3.0,86,0.00,,,0.01,VWS V14.01,2013-02-23 21:52:00,
2013-02-23 15:57:00,26.9,23.3,29.93,NE,50,0.0,3.0,86,0.00,,,0.01,VWS V14.01,2013-02-23 21:57:00,
2013-02-23 16:00:00,26.9,23.3,29.93,ENE,60,2.0,3.0,86,0.00,,,0.01,VWS V14.01,2013-02-23 22:00:00,
2013-02-23 16:02:00,26.8,23.2,29.94,WSW,246,1.0,3.0,86,0.00,,,0.01,VWS V14.01,2013-02-23 22:02:00,
2013-02-23 16:07:00,26.7,22.8,29.94,NNE,24,1.0,3.0,85,0.00,,,0.01,VWS V14.01,2013-02-23 22:07:00,
2013-02-23 16:12:00,26.5,22.6,29.94,SSW,205,1.0,3.0,85,0.00,,,0.01,VWS V14.01,2013-02-23 22:12:00,
2013-02-23 16:15:00,26.5,22.9,29.94,SSW,206,0.0,3.0,86,0.00,,,0.01,VWS V14.01,2013-02-23 22:15:00,
2013-02-23 16:17:00,26.5,22.9,29.94,NE,56,0.0,3.0,86,0.00,,,0.01,VWS V14.01,2013-02-23 22:17:00,
2013-02-23 16:22:00,26.5,22.9,29.94,NE,56,1.0,3.0,86,0.00,,,0.01,VWS V14.01,2013-02-23 22:22:00,
2013-02-23 16:27:00,26.6,23.0,29.94,NE,53,1.0,3.0,86,0.00,,,0.01,VWS V14.01,2013-02-23 22:27:00,
2013-02-23 16:30:00,26.5,22.9,29.94,SW,234,0.0,3.0,86,0.00,,,0.01,VWS V14.01,2013-02-23 22:30:00,
2013-02-23 16:32:00,26.3,22.7,29.94,SSE,150,1.0,2.0,86,0.00,,,0.01,VWS V14.01,2013-02-23 22:32:00,
2013-02-23 16:38:00,26.2,22.6,29.94,West,263,0.0,3.0,86,0.00,,,0.01,VWS V14.01,2013-02-23 22:38:00,
2013-02-23 16:43:00,26.1,22.8,29.94,WSW,250,0.0,3.0,87,0.00,,,0.01,VWS V14.01,2013-02-23 22:43:00,
2013-02-23 16:45:00,26.1,22.8,29.94,WSW,250,0.0,3.0,87,0.00,,,0.01,VWS V14.01,2013-02-23 22:45:00,
2013-02-23 16:48:00,26.0,22.7,29.94,WSW,250,1.0,1.0,87,0.00,,,0.01,VWS V14.01,2013-02-23 22:48:00,
2013-02-23 16:53:00,25.8,22.2,29.94,South,169,0.0,5.0,86,0.00,,,0.01,VWS V14.01,2013-02-23 22:53:00,
2013-02-23 16:58:00,25.5,22.2,29.94,WNW,286,0.0,5.0,87,0.00,,,0.01,VWS V14.01,2013-02-23 22:58:00,
2013-02-23 17:00:00,25.5,22.2,29.94,WNW,286,1.0,5.0,87,0.00,,,0.01,VWS V14.01,2013-02-23 23:00:00,
2013-02-23 17:03:00,25.4,22.1,29.94,WNW,284,0.0,1.0,87,0.00,,,0.01,VWS V14.01,2013-02-23 23:03:00,
2013-02-23 17:08:00,25.1,21.5,29.94,ENE,78,0.0,2.0,86,0.00,,,0.01,VWS V14.01,2013-02-23 23:08:00,
2013-02-23 17:13:00,24.8,21.2,29.95,ENE,76,0.0,2.0,86,0.00,,,0.01,VWS V14.01,2013-02-23 23:13:00,
2013-02-23 17:15:00,24.8,21.2,29.95,ENE,76,0.0,2.0,86,0.00,,,0.01,VWS V14.01,2013-02-23 23:15:00,
2013-02-23 17:18:00,24.3,20.7,29.95,NW,318,2.0,3.0,86,0.00,,,0.01,VWS V14.01,2013-02-23 23:18:00,
2013-02-23 17:24:00,24.0,20.4,29.95,South,186,1.0,3.0,86,0.00,,,0.01,VWS V14.01,2013-02-23 23:24:00,
2013-02-23 17:29:00,23.6,20.0,29.95,South,182,0.0,0.0,86,0.00,,,0.01,VWS V14.01,2013-02-23 23:29:00,
2013-02-23 17:30:00,23.6,20.0,29.95,South,182,0.0,3.0,86,0.00,,,0.01,VWS V14.01,2013-02-23 23:30:00,
2013-02-23 17:34:00,23.3,20.0,29.95,South,188,1.0,1.0,87,0.00,,,0.01,VWS V14.01,2013-02-23 23:34:00,
2013-02-23 17:39:00,23.0,19.7,29.95,SSW,195,0.0,2.0,87,0.00,,,0.01,VWS V14.01,2013-02-23 23:39:00,
2013-02-23 17:44:00,22.7,19.4,29.95,SSW,203,1.0,2.0,87,0.00,,,0.01,VWS V14.01,2013-02-23 23:44:00,
2013-02-23 17:45:00,22.7,19.4,29.95,SSW,198,0.0,2.0,87,0.00,,,0.01,VWS V14.01,2013-02-23 23:45:00,
2013-02-23 17:49:00,22.4,19.1,29.95,WNW,286,0.0,4.0,87,0.00,,,0.01,VWS V14.01,2013-02-23 23:49:00,
2013-02-23 17:54:00,22.2,18.9,29.95,WNW,286,0.0,4.0,87,0.00,,,0.01,VWS V14.01,2013-02-23 23:54:00,
2013-02-23 17:59:00,22.0,19.0,29.96,WNW,286,2.0,2.0,88,0.00,,,0.01,VWS V14.01,2013-02-23 23:59:00,
2013-02-23 18:00:00,22.1,19.1,29.96,WNW,286,0.0,4.0,88,0.00,,,0.01,VWS V14.01,2013-02-24 00:00:00,
2013-02-23 18:04:00,21.8,18.8,29.96,WNW,286,1.0,2.0,88,0.00,,,0.01,VWS V14.01,2013-02-24 00:04:00,
2013-02-23 18:10:00,21.6,18.6,29.96,WNW,286,0.0,2.0,88,0.00,,,0.01,VWS V14.01,2013-02-24 00:10:00,
2013-02-23 18:15:00,21.4,18.4,29.96,WNW,290,0.0,1.0,88,0.00,,,0.01,VWS V14.01,2013-02-24 00:15:00,
2013-02-23 18:20:00,21.2,18.5,29.96,WNW,286,1.0,2.0,89,0.00,,,0.01,VWS V14.01,2013-02-24 00:20:00,
2013-02-23 18:25:00,21.1,18.4,29.96,WNW,286,0.0,2.0,89,0.00,,,0.01,VWS V14.01,2013-02-24 00:25:00,
2013-02-23 18:30:00,20.9,18.2,29.96,WNW,286,0.0,0.0,89,0.00,,,0.01,VWS V14.01,2013-02-24 00:30:00,
2013-02-23 18:35:00,20.7,18.0,29.97,WNW,283,0.0,1.0,89,0.00,,,0.01,VWS V14.01,2013-02-24 00:35:00,
2013-02-23 18:40:00,20.4,17.7,29.97,WNW,283,0.0,1.0,89,0.00,,,0.01,VWS V14.01,2013-02-24 00:40:00,
2013-02-23 18:45:00,20.2,17.5,29.97,WNW,283,0.0,0.0,89,0.00,,,0.01,VWS V14.01,2013-02-24 00:45:00,
2013-02-23 18:50:00,19.9,17.2,29.97,WNW,283,0.0,0.0,89,0.00,,,0.01,VWS V14.01,2013-02-24 00:50:00,
2013-02-23 18:55:00,19.8,17.4,29.97,WNW,283,0.0,0.0,90,0.00,,,0.01,VWS V14.01,2013-02-24 00:55:00,
2013-02-23 19:00:00,19.7,17.2,29.98,WNW,283,0.0,0.0,90,0.00,,,0.01,VWS V14.01,2013-02-24 01:00:00,
2013-02-23 19:01:00,19.6,17.1,29.98,WNW,283,0.0,1.0,90,0.00,,,0.01,VWS V14.01,2013-02-24 01:01:00,
2013-02-23 19:06:00,19.4,17.0,29.98,WNW,283,0.0,1.0,90,0.00,,,0.01,VWS V14.01,2013-02-24 01:06:00,
2013-02-23 19:11:00,19.2,16.8,29.98,WNW,283,0.0,1.0,90,0.00,,,0.01,VWS V14.01,2013-02-24 01:11:00,
2013-02-23 19:15:00,19.1,16.7,29.98,WNW,283,0.0,1.0,90,0.00,,,0.01,VWS V14.01,2013-02-24 01:15:00,
2013-02-23 19:16:00,19.1,16.7,29.98,WNW,283,0.0,0.0,90,0.00,,,0.01,VWS V14.01,2013-02-24 01:16:00,
2013-02-23 19:21:00,19.0,16.6,29.98,WNW,283,0.0,0.0,90,0.00,,,0.01,VWS V14.01,2013-02-24 01:21:00,
2013-02-23 19:26:00,18.9,16.7,29.98,WNW,283,0.0,0.0,91,0.00,,,0.01,VWS V14.01,2013-02-24 01:26:00,
2013-02-23 19:30:00,19.0,16.8,29.98,WNW,283,0.0,0.0,91,0.00,,,0.01,VWS V14.01,2013-02-24 01:30:00,
2013-02-23 19:31:00,19.0,16.8,29.98,WNW,283,1.0,1.0,91,0.00,,,0.01,VWS V14.01,2013-02-24 01:31:00,
2013-02-23 19:36:00,19.5,17.6,29.98,WNW,283,0.0,1.0,92,0.00,,,0.01,VWS V14.01,2013-02-24 01:36:00,
2013-02-23 19:41:00,19.7,17.8,29.98,WNW,283,0.0,1.0,92,0.00,,,0.01,VWS V14.01,2013-02-24 01:41:00,
2013-02-23 19:45:00,19.7,17.8,29.98,WNW,283,0.0,1.0,92,0.00,,,0.01,VWS V14.01,2013-02-24 01:45:00,
2013-02-23 19:46:00,19.5,17.3,29.98,WNW,283,0.0,0.0,91,0.00,,,0.01,VWS V14.01,2013-02-24 01:46:00,
2013-02-23 19:52:00,19.2,17.0,29.98,WNW,283,0.0,0.0,91,0.00,,,0.01,VWS V14.01,2013-02-24 01:52:00,
2013-02-23 19:57:00,19.1,16.9,29.98,WNW,283,0.0,0.0,91,0.00,,,0.01,VWS V14.01,2013-02-24 01:57:00,
2013-02-23 20:00:00,19.1,16.9,29.98,WNW,283,0.0,0.0,91,0.00,,,0.01,VWS V14.01,2013-02-24 02:00:00,
2013-02-23 20:02:00,19.0,16.8,29.98,WNW,283,0.0,0.0,91,0.00,,,0.01,VWS V14.01,2013-02-24 02:02:00,
2013-02-23 20:07:00,18.8,16.6,29.98,WNW,283,0.0,0.0,91,0.00,,,0.01,VWS V14.01,2013-02-24 02:07:00,
2013-02-23 20:12:00,18.6,16.2,29.98,WNW,283,0.0,0.0,90,0.00,,,0.01,VWS V14.01,2013-02-24 02:12:00,
2013-02-23 20:15:00,18.6,16.4,29.98,WNW,283,0.0,1.0,91,0.00,,,0.01,VWS V14.01,2013-02-24 02:15:00,
2013-02-23 20:17:00,18.5,16.3,29.98,WNW,283,0.0,0.0,91,0.00,,,0.01,VWS V14.01,2013-02-24 02:17:00,
2013-02-23 20:22:00,18.6,16.4,29.98,WNW,283,1.0,1.0,91,0.00,,,0.01,VWS V14.01,2013-02-24 02:22:00,
2013-02-23 20:27:00,18.6,16.4,29.98,WNW,283,0.0,2.0,91,0.00,,,0.01,VWS V14.01,2013-02-24 02:27:00,
2013-02-23 20:30:00,18.6,16.4,29.98,WNW,283,0.0,2.0,91,0.00,,,0.01,VWS V14.01,2013-02-24 02:30:00,
2013-02-23 20:32:00,18.6,16.4,29.98,WNW,283,0.0,0.0,91,0.00,,,0.01,VWS V14.01,2013-02-24 02:32:00,
2013-02-23 20:38:00,18.6,16.4,29.98,WNW,283,0.0,0.0,91,0.00,,,0.01,VWS V14.01,2013-02-24 02:38:00,
2013-02-23 20:43:00,18.5,16.1,29.98,WNW,283,0.0,0.0,90,0.00,,,0.01,VWS V14.01,2013-02-24 02:43:00,
2013-02-23 20:45:00,18.5,16.1,29.98,WNW,283,0.0,0.0,90,0.00,,,0.01,VWS V14.01,2013-02-24 02:45:00,
2013-02-23 20:48:00,18.4,16.0,29.98,WNW,283,0.0,0.0,90,0.00,,,0.01,VWS V14.01,2013-02-24 02:48:00,
2013-02-23 20:53:00,18.3,15.9,29.99,WNW,283,0.0,1.0,90,0.00,,,0.01,VWS V14.01,2013-02-24 02:53:00,
2013-02-23 20:58:00,18.2,15.8,29.99,WNW,283,0.0,1.0,90,0.00,,,0.01,VWS V14.01,2013-02-24 02:58:00,
2013-02-23 21:00:00,18.2,15.8,29.99,WNW,283,0.0,1.0,90,0.00,,,0.01,VWS V14.01,2013-02-24 03:00:00,
2013-02-23 21:03:00,18.5,18.5,29.99,WNW,283,0.0,1.0,100,0.00,,,0.01,VWS V14.01,2013-02-24 03:03:00,
2013-02-23 21:08:00,18.4,16.2,29.99,WNW,283,0.0,1.0,91,0.00,,,0.01,VWS V14.01,2013-02-24 03:08:00,
2013-02-23 21:13:00,18.1,15.7,30.00,WNW,283,0.0,1.0,90,0.00,,,0.01,VWS V14.01,2013-02-24 03:13:00,
2013-02-23 21:15:00,18.1,15.7,30.00,WNW,283,1.0,1.0,90,0.00,,,0.01,VWS V14.01,2013-02-24 03:15:00,
2013-02-23 21:18:00,18.0,15.6,29.99,WNW,283,0.0,1.0,90,0.00,,,0.01,VWS V14.01,2013-02-24 03:18:00,
2013-02-23 21:23:00,17.8,15.4,30.00,WNW,283,0.0,1.0,90,0.00,,,0.01,VWS V14.01,2013-02-24 03:23:00,
2013-02-23 21:28:00,17.5,15.1,30.00,WNW,283,0.0,0.0,90,0.00,,,0.01,VWS V14.01,2013-02-24 03:28:00,
2013-02-23 21:30:00,17.6,15.2,30.00,WNW,283,0.0,1.0,90,0.00,,,0.01,VWS V14.01,2013-02-24 03:30:00,
2013-02-23 21:34:00,17.3,14.9,30.00,WNW,283,0.0,1.0,90,0.00,,,0.01,VWS V14.01,2013-02-24 03:34:00,
2013-02-23 21:39:00,17.1,14.7,30.00,WNW,283,0.0,1.0,90,0.00,,,0.01,VWS V14.01,2013-02-24 03:39:00,
2013-02-23 21:44:00,17.0,14.6,30.00,WNW,283,0.0,0.0,90,0.00,,,0.01,VWS V14.01,2013-02-24 03:44:00,
2013-02-23 21:45:00,17.0,14.6,30.00,WNW,283,0.0,1.0,90,0.00,,,0.01,VWS V14.01,2013-02-24 03:45:00,
2013-02-23 21:49:00,16.8,14.4,30.00,WNW,283,0.0,0.0,90,0.00,,,0.01,VWS V14.01,2013-02-24 03:49:00,
2013-02-23 21:54:00,16.7,14.5,30.00,WNW,283,0.0,0.0,91,0.00,,,0.01,VWS V14.01,2013-02-24 03:54:00,
2013-02-23 21:59:00,16.6,14.4,30.00,WNW,283,0.0,0.0,91,0.00,,,0.01,VWS V14.01,2013-02-24 03:59:00,
2013-02-23 22:00:00,16.6,14.4,30.00,WNW,283,0.0,0.0,91,0.00,,,0.01,VWS V14.01,2013-02-24 04:00:00,
2013-02-23 22:04:00,16.6,14.4,30.00,WNW,283,0.0,1.0,91,0.00,,,0.01,VWS V14.01,2013-02-24 04:04:00,
2013-02-23 22:09:00,16.5,14.3,30.01,WNW,283,0.0,1.0,91,0.00,,,0.01,VWS V14.01,2013-02-24 04:09:00,
2013-02-23 22:14:00,16.3,14.1,30.01,WNW,283,0.0,0.0,91,0.00,,,0.01,VWS V14.01,2013-02-24 04:14:00,
2013-02-23 22:15:00,16.3,14.1,30.01,WNW,283,0.0,1.0,91,0.00,,,0.01,VWS V14.01,2013-02-24 04:15:00,
2013-02-23 22:20:00,16.2,13.8,30.01,WNW,283,0.0,1.0,90,0.00,,,0.01,VWS V14.01,2013-02-24 04:20:00,
2013-02-23 22:25:00,16.0,13.8,30.01,WNW,283,0.0,1.0,91,0.00,,,0.01,VWS V14.01,2013-02-24 04:25:00,
2013-02-23 22:30:00,15.9,13.7,30.01,West,280,0.0,1.0,91,0.00,,,0.01,VWS V14.01,2013-02-24 04:30:00,
2013-02-23 22:35:00,15.7,13.3,30.01,West,279,0.0,1.0,90,0.00,,,0.01,VWS V14.01,2013-02-24 04:35:00,
2013-02-23 22:40:00,15.5,13.1,30.01,West,279,0.0,1.0,90,0.00,,,0.01,VWS V14.01,2013-02-24 04:40:00,
2013-02-23 22:45:00,15.4,13.0,30.01,West,279,0.0,0.0,90,0.00,,,0.01,VWS V14.01,2013-02-24 04:45:00,
2013-02-23 22:50:00,15.4,13.0,30.01,West,279,0.0,1.0,90,0.00,,,0.01,VWS V14.01,2013-02-24 04:50:00,
2013-02-23 22:55:00,15.4,13.2,30.02,West,279,0.0,1.0,91,0.00,,,0.01,VWS V14.01,2013-02-24 04:55:00,
2013-02-23 23:00:00,15.4,13.2,30.02,West,279,0.0,0.0,91,0.00,,,0.01,VWS V14.01,2013-02-24 05:00:00,
2013-02-23 23:06:00,15.4,13.0,30.02,WNW,284,0.0,2.0,90,0.00,,,0.01,VWS V14.01,2013-02-24 05:06:00,
2013-02-23 23:11:00,15.4,13.0,30.02,WNW,284,0.0,2.0,90,0.00,,,0.01,VWS V14.01,2013-02-24 05:11:00,
2013-02-23 23:15:00,15.3,12.9,30.02,WNW,284,0.0,2.0,90,0.00,,,0.01,VWS V14.01,2013-02-24 05:15:00,
2013-02-23 23:16:00,15.3,12.9,30.02,WNW,284,0.0,0.0,90,0.00,,,0.01,VWS V14.01,2013-02-24 05:16:00,
2013-02-23 23:21:00,15.2,12.8,30.03,WNW,284,0.0,1.0,90,0.00,,,0.01,VWS V14.01,2013-02-24 05:21:00,
2013-02-23 23:26:00,15.0,12.6,30.03,West,277,0.0,1.0,90,0.00,,,0.01,VWS V14.01,2013-02-24 05:26:00,
2013-02-23 23:30:00,15.0,12.6,30.03,West,277,0.0,1.0,90,0.00,,,0.01,VWS V14.01,2013-02-24 05:30:00,
2013-02-23 23:31:00,14.8,12.4,30.03,West,277,0.0,1.0,90,0.00,,,0.01,VWS V14.01,2013-02-24 05:31:00,
2013-02-23 23:36:00,14.6,12.2,30.03,West,277,0.0,1.0,90,0.00,,,0.01,VWS V14.01,2013-02-24 05:36:00,
2013-02-23 23:41:00,14.4,12.0,30.03,West,277,0.0,1.0,90,0.00,,,0.01,VWS V14.01,2013-02-24 05:41:00,
2013-02-23 23:45:00,14.3,11.9,30.03,West,277,0.0,1.0,90,0.00,,,0.01,VWS V14.01,2013-02-24 05:45:00,
2013-02-23 23:46:00,14.3,11.9,30.03,West,277,0.0,0.0,90,0.00,,,0.01,VWS V14.01,2013-02-24 05:46:00,
2013-02-23 23:52:00,14.2,11.8,30.03,West,277,0.0,0.0,90,0.00,,,0.01,VWS V14.01,2013-02-24 05:52:00,
2013-02-23 23:57:00,14.3,12.2,30.03,West,277,0.0,0.0,91,0.00,,,0.01,VWS V14.01,2013-02-24 05:57:00,